CST,Max TemperatureF,Mean TemperatureF,Min TemperatureF,Max Dew PointF,MeanDew PointF,Min DewpointF,Max Humidity, Mean Humidity, Min Humidity, Max Sea Level PressureIn, Mean Sea Level PressureIn, Min Sea Level PressureIn, Max VisibilityMiles, Mean VisibilityMiles, Min VisibilityMiles, Max Wind SpeedMPH, Mean Wind SpeedMPH, Max Gust SpeedMPH,PrecipitationIn, CloudCover, Events, WindDirDegrees
2012-12-1,70,50,29,43,37,30,100,82,27,29.98,29.87,29.79,10,5,0,8,4,,0.00,3,Fog,1
2012-12-2,72,56,39,37,32,29,89,54,23,30.03,29.89,29.63,10,10,8,16,6,24,0.00,0,,209
2012-12-3,62,45,27,37,29,18,92,59,32,30.19,29.89,29.56,10,10,8,24,9,36,0.00,0,,327
2012-12-4,62,42,22,18,15,13,75,42,16,30.38,30.30,30.22,10,10,10,10,6,,0.00,0,,258
2012-12-5,63,50,36,24,19,15,44,31,22,30.25,30.04,29.83,10,10,8,22,9,33,0.00,0,,198
2012-12-6,54,43,31,30,19,13,57,41,23,30.02,29.94,29.82,10,10,10,24,9,32,0.00,1,,9
2012-12-7,54,39,24,23,19,15,66,51,28,30.04,29.97,29.87,10,10,7,10,3,,0.00,5,,338
2012-12-8,48,32,16,25,23,21,72,56,36,30.03,29.93,29.79,10,10,10,12,2,,0.00,2,,167
2012-12-9,40,25,10,24,8,0,64,49,37,30.36,30.16,29.90,10,10,8,28,18,37,0.00,4,,327
2012-12-10,44,22,0,7,0,-5,75,48,14,30.32,30.10,29.93,10,10,10,20,7,28,0.00,0,,272
2012-12-11,47,31,14,17,11,6,81,51,20,30.17,30.07,30.01,10,10,10,13,7,18,0.00,1,,237
2012-12-12,53,39,24,16,13,11,56,38,21,30.00,29.94,29.88,10,10,10,20,10,28,0.00,0,,206
2012-12-13,61,41,21,19,15,12,68,46,20,30.07,30.01,29.92,10,10,10,12,5,,0.00,0,,44
2012-12-14,54,34,14,47,35,9,100,83,45,29.96,29.70,29.40,10,7,2,18,5,24,0.42,5,Rain,148
2012-12-15,53,43,33,46,36,30,100,82,45,29.78,29.61,29.39,10,9,4,16,10,24,0.09,4,Rain,315
2012-12-16,45,37,28,32,29,26,96,84,63,29.86,29.80,29.75,10,10,10,12,8,17,T,3,,333
2012-12-17,55,40,25,29,26,20,100,70,25,29.83,29.72,29.58,10,9,2,21,7,28,0.00,1,,246
2012-12-18,54,42,30,25,19,11,72,45,19,29.82,29.74,29.59,10,10,10,20,11,26,0.00,0,,311
2012-12-19,43,35,26,32,27,20,100,85,56,29.99,29.78,29.58,10,4,0,37,17,45,0.11,6,Fog-Snow,20
2012-12-20,34,25,16,21,13,6,80,64,44,30.33,30.24,29.95,10,10,3,32,18,40,0.01,1,,294
2012-12-21,44,29,13,26,17,10,92,75,45,30.36,30.27,30.17,10,10,10,7,5,,0.00,0,,244
2012-12-22,49,31,13,26,21,12,96,74,36,30.14,30.06,29.99,10,10,10,13,4,,0.00,0,,314
2012-12-23,31,22,13,24,18,12,92,85,72,30.12,30.05,30.00,10,9,6,9,4,,0.00,0,,357
2012-12-24,24,18,11,17,11,8,92,80,63,30.22,30.15,30.11,10,10,8,14,6,17,0.00,1,,41
2012-12-25,16,11,5,10,7,2,86,78,68,30.48,30.35,30.13,10,8,1,28,18,37,0.00,7,Snow,14
2012-12-26,24,11,-2,11,4,-5,88,76,57,30.44,30.25,30.02,10,10,10,12,5,,0.00,1,,142
2012-12-27,23,17,10,18,13,6,86,80,74,30.09,29.96,29.81,10,9,7,15,8,,T,6,,62
2012-12-28,22,14,6,10,6,1,87,75,60,30.25,30.17,30.10,10,10,10,15,9,,0.00,0,,304
2012-12-29,40,24,7,19,12,4,88,70,43,30.38,30.31,30.25,10,10,10,13,7,,0.00,0,,269
2012-12-30,38,31,24,22,19,14,72,60,47,30.19,30.10,30.05,10,10,10,17,11,25,0.00,1,,262
2012-12-31,28,22,16,20,18,14,93,88,71,30.29,30.12,30.05,10,3,0,20,12,24,0.06,8,Fog-Snow,24